This is the latest recevied weather packets stored in our database for station/object HB9FHL-13. If no packets are shown the sender has not sent any weather packets the latest 10 day(s).
| Time | Temp. | Humidity | Pressure | Rain* | Wind** | Luminosity | Snow |
|---|---|---|---|---|---|---|---|
| 1777124588 | 19.44° C | - | 1016.1 hPa | 0 mm | - | - | - |
| 1777124288 | 18.89° C | - | 1018.9 hPa | 0 mm | - | - | - |
| 1777123987 | 20° C | - | 1015.8 hPa | 0 mm | - | - | - |
| 1777123687 | 20° C | - | 1020.1 hPa | 0 mm | - | - | - |
| 1777123386 | 19.44° C | - | 1015.5 hPa | 0 mm | - | - | - |
| 1777123086 | 19.44° C | - | 1015.2 hPa | 0 mm | - | - | - |
| 1777122785 | 20° C | - | 1022.3 hPa | 0 mm | - | - | - |
| 1777122485 | 20° C | - | 1016.8 hPa | 0 mm | - | - | - |
| 1777122184 | 20° C | - | 1017.8 hPa | 0 mm | - | - | - |
| 1777121884 | 19.44° C | - | 1016.3 hPa | 0 mm | - | - | - |
| 1777121584 | 18.89° C | - | 1018.3 hPa | 0 mm | - | - | - |
| 1777121283 | 18.89° C | - | 1020.1 hPa | 0 mm | - | - | - |
| 1777120982 | 19.44° C | - | 1019.5 hPa | 0 mm | - | - | - |
| 1777120680 | 18.89° C | - | 1015.4 hPa | 0 mm | - | - | - |
| 1777120378 | 18.33° C | - | 1016.8 hPa | 0 mm | - | - | - |
| 1777120077 | 19.44° C | - | 1017.9 hPa | 0 mm | - | - | - |
| 1777119776 | 18.33° C | - | 1016.7 hPa | 0 mm | - | - | - |
| 1777119476 | 18.89° C | - | 1018.7 hPa | 0 mm | - | - | - |
| 1777119175 | 18.33° C | - | 1019.8 hPa | 0 mm | - | - | - |
| 1777118875 | 18.89° C | - | 1014.2 hPa | 0 mm | - | - | - |
| 1777118573 | 18.33° C | - | 1025.1 hPa | 0 mm | - | - | - |
| 1777118272 | 18.33° C | - | 1015.3 hPa | 0 mm | - | - | - |
| 1777117971 | 18.33° C | - | 1017.3 hPa | 0 mm | - | - | - |
| 1777117671 | 18.33° C | - | 1014 hPa | 0 mm | - | - | - |
| 1777117370 | 18.33° C | - | 1015.3 hPa | 0 mm | - | - | - |
* Rain since midnight (hover to see other rain measurements)
** Current wind speed in m/s (hover to see current wind gust speed)